User: anonymous   Login
Location: Melizzano
(41.1500°N, 14.5000°E)
Time: 00:43:30
(UTC+00:00)
Language:

Cosmos 2239 Rocket - Orbit

View from above orbital plane
View from above orbital plane
View from above satellite
View from above satellite

Ground track
Ground track

The orbit data is extracted from the following two-line orbital elements,

1 22591U 93020B   21213.37368417 -.00000020  00000-0 -35512-4 0  9995
2 22591  82.9303 357.5102 0026490 115.4665 273.6445 13.77454357423835
Epoch (UTC): 01 August 2021 08:58:06
Eccentricity: 0.0026490
inclination: 82.9303°
perigee height: 953 km
apogee height: 992 km
right ascension of ascending node: 357.5102°
argument of perigee: 115.4665°
revolutions per day: 13.77454357
mean anomaly at epoch: 273.6445°
orbit number at epoch: 42383

The dashed part of the orbit path shows where the satellite is in the earth's shadow,  

DLR